Year,Month,Day,Hour,Minute,Value (Times are PST for temperature in C)
2013,03,31,00,00,6.70
2013,03,31,00,01,6.70
2013,03,31,00,02,6.60
2013,03,31,00,03,6.60
2013,03,31,00,04,6.60
2013,03,31,00,05,6.50
2013,03,31,00,06,6.40
2013,03,31,00,07,6.40
2013,03,31,00,08,6.40
2013,03,31,00,09,6.40
2013,03,31,00,10,6.40
2013,03,31,00,11,6.40
2013,03,31,00,12,6.40
2013,03,31,00,13,6.40
2013,03,31,00,14,6.40
2013,03,31,00,15,6.40
2013,03,31,00,16,6.40
2013,03,31,00,17,6.30
2013,03,31,00,18,6.30
2013,03,31,00,19,6.20
2013,03,31,00,20,6.20
2013,03,31,00,21,6.20
2013,03,31,00,22,6.20
2013,03,31,00,23,6.20
2013,03,31,00,24,6.20
2013,03,31,00,25,6.30
2013,03,31,00,26,6.30
2013,03,31,00,27,6.30
2013,03,31,00,28,6.40
2013,03,31,00,29,6.40
2013,03,31,00,30,6.40
2013,03,31,00,31,6.40
2013,03,31,00,32,6.40
2013,03,31,00,33,6.40
2013,03,31,00,34,6.40
2013,03,31,00,35,6.30
2013,03,31,00,36,6.30
2013,03,31,00,37,6.40
2013,03,31,00,38,6.40
2013,03,31,00,39,6.40
2013,03,31,00,40,6.40
2013,03,31,00,41,6.40
2013,03,31,00,42,6.40
2013,03,31,00,43,6.40
2013,03,31,00,44,6.40
2013,03,31,00,45,6.40
2013,03,31,00,46,6.40
2013,03,31,00,47,6.40
2013,03,31,00,48,6.40
2013,03,31,00,49,6.40
2013,03,31,00,50,6.30
2013,03,31,00,51,6.30
2013,03,31,00,52,6.30
2013,03,31,00,53,6.30
2013,03,31,00,54,6.20
2013,03,31,00,55,6.20
2013,03,31,00,56,6.20
2013,03,31,00,57,6.20
2013,03,31,00,58,6.20
2013,03,31,00,59,6.20
2013,03,31,01,00,6.20
2013,03,31,01,01,6.20
2013,03,31,01,02,6.20
2013,03,31,01,03,6.20
2013,03,31,01,04,6.20
2013,03,31,01,05,6.20
2013,03,31,01,06,6.20
2013,03,31,01,07,6.20
2013,03,31,01,08,6.10
2013,03,31,01,09,6.10
2013,03,31,01,10,6.10
2013,03,31,01,11,6.00
2013,03,31,01,12,6.00
2013,03,31,01,13,6.00
2013,03,31,01,14,6.00
2013,03,31,01,15,6.00
2013,03,31,01,16,6.00
2013,03,31,01,17,6.00
2013,03,31,01,18,6.00
2013,03,31,01,19,6.00
2013,03,31,01,20,6.10
2013,03,31,01,21,6.20
2013,03,31,01,22,6.20
2013,03,31,01,23,6.30
2013,03,31,01,24,6.30
2013,03,31,01,25,6.40
2013,03,31,01,26,6.40
2013,03,31,01,27,6.40
2013,03,31,01,28,6.40
2013,03,31,01,29,6.40
2013,03,31,01,30,6.40
2013,03,31,01,31,6.40
2013,03,31,01,32,6.40
2013,03,31,01,33,6.40
2013,03,31,01,34,6.30
2013,03,31,01,35,6.10
2013,03,31,01,36,6.00
2013,03,31,01,37,5.90
2013,03,31,01,38,5.90
2013,03,31,01,39,5.80
2013,03,31,01,40,5.80
2013,03,31,01,41,5.80
2013,03,31,01,42,5.70
2013,03,31,01,43,5.70
2013,03,31,01,44,5.70
2013,03,31,01,45,5.70
2013,03,31,01,46,5.70
2013,03,31,01,47,5.70
2013,03,31,01,48,5.70
2013,03,31,01,49,5.70
2013,03,31,01,50,5.70
2013,03,31,01,51,5.60
2013,03,31,01,52,5.60
2013,03,31,01,53,5.60
2013,03,31,01,54,5.50
2013,03,31,01,55,5.50
2013,03,31,01,56,5.50
2013,03,31,01,57,5.60
2013,03,31,01,58,5.60
2013,03,31,01,59,5.70
2013,03,31,02,00,5.70
2013,03,31,02,01,5.70
2013,03,31,02,02,5.70
2013,03,31,02,03,5.60
2013,03,31,02,04,5.60
2013,03,31,02,05,5.60
2013,03,31,02,06,5.50
2013,03,31,02,07,5.50
2013,03,31,02,08,5.40
2013,03,31,02,09,5.40
2013,03,31,02,10,5.30
2013,03,31,02,11,5.30
2013,03,31,02,12,5.30
2013,03,31,02,13,5.30
2013,03,31,02,14,5.30
2013,03,31,02,15,5.30
2013,03,31,02,16,5.30
2013,03,31,02,17,5.30
2013,03,31,02,18,5.30
2013,03,31,02,19,5.30
2013,03,31,02,20,5.30
2013,03,31,02,21,5.20
2013,03,31,02,22,5.20
2013,03,31,02,23,5.20
2013,03,31,02,24,5.20
2013,03,31,02,25,5.20
2013,03,31,02,26,5.20
2013,03,31,02,27,5.20
2013,03,31,02,28,5.20
2013,03,31,02,29,5.20
2013,03,31,02,30,5.20
2013,03,31,02,31,5.20
2013,03,31,02,32,5.20
2013,03,31,02,33,5.20
2013,03,31,02,34,5.30
2013,03,31,02,35,5.30
2013,03,31,02,36,5.30
2013,03,31,02,37,5.30
2013,03,31,02,38,5.30
2013,03,31,02,39,5.30
2013,03,31,02,40,5.30
2013,03,31,02,41,5.30
2013,03,31,02,42,5.30
2013,03,31,02,43,5.40
2013,03,31,02,44,5.40
2013,03,31,02,45,5.40
2013,03,31,02,46,5.30
2013,03,31,02,47,5.30
2013,03,31,02,48,5.30
2013,03,31,02,49,5.30
2013,03,31,02,50,5.30
2013,03,31,02,51,5.30
2013,03,31,02,52,5.30
2013,03,31,02,53,5.30
2013,03,31,02,54,5.30
2013,03,31,02,55,5.30
2013,03,31,02,56,5.30
2013,03,31,02,57,5.20
2013,03,31,02,58,5.20
2013,03,31,02,59,5.10
2013,03,31,03,00,5.10
2013,03,31,03,01,5.10
2013,03,31,03,02,5.10
2013,03,31,03,03,5.10
2013,03,31,03,04,5.10
2013,03,31,03,05,5.10
2013,03,31,03,06,5.10
2013,03,31,03,07,5.10
2013,03,31,03,08,5.10
2013,03,31,03,09,5.10
2013,03,31,03,10,5.10
2013,03,31,03,11,5.10
2013,03,31,03,12,5.10
2013,03,31,03,13,5.10
2013,03,31,03,14,5.10
2013,03,31,03,15,5.20
2013,03,31,03,16,5.30
2013,03,31,03,17,5.30
2013,03,31,03,18,5.40
2013,03,31,03,19,5.40
2013,03,31,03,20,5.40
2013,03,31,03,21,5.40
2013,03,31,03,22,5.40
2013,03,31,03,23,5.40
2013,03,31,03,24,5.40
2013,03,31,03,25,5.50
2013,03,31,03,26,5.50
2013,03,31,03,27,5.50
2013,03,31,03,28,5.60
2013,03,31,03,29,5.60
2013,03,31,03,30,5.60
2013,03,31,03,31,5.50
2013,03,31,03,32,5.50
2013,03,31,03,33,5.40
2013,03,31,03,34,5.30
2013,03,31,03,35,5.30
2013,03,31,03,36,5.30
2013,03,31,03,37,5.30
2013,03,31,03,38,5.30
2013,03,31,03,39,5.30
2013,03,31,03,40,5.30
2013,03,31,03,41,5.40
2013,03,31,03,42,5.40
2013,03,31,03,43,5.50
2013,03,31,03,44,5.60
2013,03,31,03,45,5.60
2013,03,31,03,46,5.70
2013,03,31,03,47,5.70
2013,03,31,03,48,5.70
2013,03,31,03,49,5.70
2013,03,31,03,50,5.80
2013,03,31,03,51,5.80
2013,03,31,03,52,5.90
2013,03,31,03,53,5.90
2013,03,31,03,54,5.90
2013,03,31,03,55,6.00
2013,03,31,03,56,6.00
2013,03,31,03,57,6.00
2013,03,31,03,58,6.00
2013,03,31,03,59,6.10
2013,03,31,04,00,6.10
2013,03,31,04,01,6.20
2013,03,31,04,02,6.20
2013,03,31,04,03,6.20
2013,03,31,04,04,6.30
2013,03,31,04,05,6.30
2013,03,31,04,06,6.40
2013,03,31,04,07,6.40
2013,03,31,04,08,6.40
2013,03,31,04,09,6.60
2013,03,31,04,10,6.60
2013,03,31,04,11,6.60
2013,03,31,04,12,6.60
2013,03,31,04,13,6.60
2013,03,31,04,14,6.70
2013,03,31,04,15,6.70
2013,03,31,04,16,6.70
2013,03,31,04,17,6.50
2013,03,31,04,18,6.40
2013,03,31,04,19,6.20
2013,03,31,04,20,6.00
2013,03,31,04,21,5.80
2013,03,31,04,22,5.70
2013,03,31,04,23,5.50
2013,03,31,04,24,5.40
2013,03,31,04,25,5.30
2013,03,31,04,26,5.30
2013,03,31,04,27,5.20
2013,03,31,04,28,5.20
2013,03,31,04,29,5.30
2013,03,31,04,30,5.40
2013,03,31,04,31,5.60
2013,03,31,04,32,5.70
2013,03,31,04,33,5.90
2013,03,31,04,34,6.00
2013,03,31,04,35,6.10
2013,03,31,04,36,6.20
2013,03,31,04,37,6.30
2013,03,31,04,38,6.40
2013,03,31,04,39,6.50
2013,03,31,04,40,6.60
2013,03,31,04,41,6.60
2013,03,31,04,42,6.70
2013,03,31,04,43,6.70
2013,03,31,04,44,6.70
2013,03,31,04,45,6.70
2013,03,31,04,46,6.70
2013,03,31,04,47,6.80
2013,03,31,04,48,6.80
2013,03,31,04,49,6.80
2013,03,31,04,50,6.90
2013,03,31,04,51,7.00
2013,03,31,04,52,7.00
2013,03,31,04,53,7.10
2013,03,31,04,54,7.10
2013,03,31,04,55,7.20
2013,03,31,04,56,7.20
2013,03,31,04,57,7.30
2013,03,31,04,58,7.30
2013,03,31,04,59,7.30
2013,03,31,05,00,7.30
2013,03,31,05,01,7.40
2013,03,31,05,02,7.40
2013,03,31,05,03,7.50
2013,03,31,05,04,7.50
2013,03,31,05,05,7.50
2013,03,31,05,06,7.50
2013,03,31,05,07,7.60
2013,03,31,05,08,7.60
2013,03,31,05,09,7.60
2013,03,31,05,10,7.70
2013,03,31,05,11,7.80
2013,03,31,05,12,7.80
2013,03,31,05,13,7.80
2013,03,31,05,14,7.90
2013,03,31,05,15,7.90
2013,03,31,05,16,7.90
2013,03,31,05,17,7.90
2013,03,31,05,18,7.90
2013,03,31,05,19,7.80
2013,03,31,05,20,7.80
2013,03,31,05,21,7.80
2013,03,31,05,22,7.80
2013,03,31,05,23,7.80
2013,03,31,05,24,7.80
2013,03,31,05,25,7.80
2013,03,31,05,26,7.70
2013,03,31,05,27,7.70
2013,03,31,05,28,7.60
2013,03,31,05,29,7.60
2013,03,31,05,30,7.60
2013,03,31,05,31,7.50
2013,03,31,05,32,7.50
2013,03,31,05,33,7.40
2013,03,31,05,34,7.30
2013,03,31,05,35,7.30
2013,03,31,05,36,7.20
2013,03,31,05,37,7.20
2013,03,31,05,38,7.20
2013,03,31,05,39,7.20
2013,03,31,05,40,7.10
2013,03,31,05,41,7.10
2013,03,31,05,42,7.10
2013,03,31,05,43,7.00
2013,03,31,05,44,7.00
2013,03,31,05,45,7.00
2013,03,31,05,46,7.00
2013,03,31,05,47,7.00
2013,03,31,05,48,7.00
2013,03,31,05,49,7.00
2013,03,31,05,50,7.00
2013,03,31,05,51,6.90
2013,03,31,05,52,6.90
2013,03,31,05,53,6.90
2013,03,31,05,54,6.90
2013,03,31,05,55,7.00
2013,03,31,05,56,7.00
2013,03,31,05,57,7.00
2013,03,31,05,58,7.00
2013,03,31,05,59,7.00
2013,03,31,06,00,7.10
2013,03,31,06,01,7.10
2013,03,31,06,02,7.20
2013,03,31,06,03,7.20
2013,03,31,06,04,7.30
2013,03,31,06,05,7.30
2013,03,31,06,06,7.30
2013,03,31,06,07,7.30
2013,03,31,06,08,7.30
2013,03,31,06,09,7.30
2013,03,31,06,10,7.30
2013,03,31,06,11,7.30
2013,03,31,06,12,7.30
2013,03,31,06,13,7.40
2013,03,31,06,14,7.40
2013,03,31,06,15,7.40
2013,03,31,06,16,7.40
2013,03,31,06,17,7.50
2013,03,31,06,18,7.50
2013,03,31,06,19,7.50
2013,03,31,06,20,7.50
2013,03,31,06,21,7.50
2013,03,31,06,22,7.50
2013,03,31,06,23,7.50
2013,03,31,06,24,7.50
2013,03,31,06,25,7.60
2013,03,31,06,26,7.60
2013,03,31,06,27,7.60
2013,03,31,06,28,7.60
2013,03,31,06,29,7.60
2013,03,31,06,30,7.70
2013,03,31,06,31,7.70
2013,03,31,06,32,7.70
2013,03,31,06,33,7.70
2013,03,31,06,34,7.70
2013,03,31,06,35,7.70
2013,03,31,06,36,7.70
2013,03,31,06,37,7.70
2013,03,31,06,38,7.60
2013,03,31,06,39,7.60
2013,03,31,06,40,7.60
2013,03,31,06,41,7.60
2013,03,31,06,42,7.60
2013,03,31,06,43,7.60
2013,03,31,06,44,7.50
2013,03,31,06,45,7.50
2013,03,31,06,46,7.50
2013,03,31,06,47,7.50
2013,03,31,06,48,7.50
2013,03,31,06,49,7.50
2013,03,31,06,50,7.50
2013,03,31,06,51,7.50
2013,03,31,06,52,7.50
2013,03,31,06,53,7.50
2013,03,31,06,54,7.50
2013,03,31,06,55,7.40
2013,03,31,06,56,7.40
2013,03,31,06,57,7.40
2013,03,31,06,58,7.30
2013,03,31,06,59,7.30
2013,03,31,07,00,7.30
2013,03,31,07,01,7.30
2013,03,31,07,02,7.20
2013,03,31,07,03,7.20
2013,03,31,07,04,7.10
2013,03,31,07,05,7.10
2013,03,31,07,06,7.10
2013,03,31,07,07,7.00
2013,03,31,07,08,7.00
2013,03,31,07,09,7.00
2013,03,31,07,10,6.90
2013,03,31,07,11,6.90
2013,03,31,07,12,6.90
2013,03,31,07,13,6.90
2013,03,31,07,14,6.90
2013,03,31,07,15,7.00
2013,03,31,07,16,7.00
2013,03,31,07,17,7.00
2013,03,31,07,18,7.00
2013,03,31,07,19,7.00
2013,03,31,07,20,7.10
2013,03,31,07,21,7.10
2013,03,31,07,22,7.20
2013,03,31,07,23,7.20
2013,03,31,07,24,7.20
2013,03,31,07,25,7.30
2013,03,31,07,26,7.30
2013,03,31,07,27,7.30
2013,03,31,07,28,7.30
2013,03,31,07,29,7.30
2013,03,31,07,30,7.40
2013,03,31,07,31,7.40
2013,03,31,07,32,7.40
2013,03,31,07,33,7.40
2013,03,31,07,34,7.50
2013,03,31,07,35,7.50
2013,03,31,07,36,7.50
2013,03,31,07,37,7.60
2013,03,31,07,38,7.60
2013,03,31,07,39,7.60
2013,03,31,07,40,7.70
2013,03,31,07,41,7.80
2013,03,31,07,42,7.80
2013,03,31,07,43,7.80
2013,03,31,07,44,7.90
2013,03,31,07,45,8.00
2013,03,31,07,46,8.10
2013,03,31,07,47,8.20
2013,03,31,07,48,8.20
2013,03,31,07,49,8.30
2013,03,31,07,50,8.40
2013,03,31,07,51,8.40
2013,03,31,07,52,8.50
2013,03,31,07,53,8.50
2013,03,31,07,54,8.50
2013,03,31,07,55,8.60
2013,03,31,07,56,8.60
2013,03,31,07,57,8.60
2013,03,31,07,58,8.60
2013,03,31,07,59,8.70
2013,03,31,08,00,8.70
2013,03,31,08,01,8.70
2013,03,31,08,02,8.70
2013,03,31,08,03,8.70
2013,03,31,08,04,8.80
2013,03,31,08,05,8.90
2013,03,31,08,06,9.00
2013,03,31,08,07,9.10
2013,03,31,08,08,9.20
2013,03,31,08,09,9.40
2013,03,31,08,10,9.50
2013,03,31,08,11,9.60
2013,03,31,08,12,9.70
2013,03,31,08,13,9.80
2013,03,31,08,14,9.90
2013,03,31,08,15,10.10
2013,03,31,08,16,10.20
2013,03,31,08,17,10.30
2013,03,31,08,18,10.40
2013,03,31,08,19,10.50
2013,03,31,08,20,10.60
2013,03,31,08,21,10.80
2013,03,31,08,22,10.90
2013,03,31,08,23,10.90
2013,03,31,08,24,11.10
2013,03,31,08,25,11.10
2013,03,31,08,26,11.10
2013,03,31,08,27,11.10
2013,03,31,08,28,11.10
2013,03,31,08,29,11.10
2013,03,31,08,30,11.10
2013,03,31,08,31,11.20
2013,03,31,08,32,11.20
2013,03,31,08,33,11.20
2013,03,31,08,34,11.30
2013,03,31,08,35,11.30
2013,03,31,08,36,11.40
2013,03,31,08,37,11.40
2013,03,31,08,38,11.50
2013,03,31,08,39,11.60
2013,03,31,08,40,11.60
2013,03,31,08,41,11.60
2013,03,31,08,42,11.60
2013,03,31,08,43,11.50
2013,03,31,08,44,11.40
2013,03,31,08,45,11.30
2013,03,31,08,46,11.20
2013,03,31,08,47,11.10
2013,03,31,08,48,11.10
2013,03,31,08,49,11.10
2013,03,31,08,50,11.10
2013,03,31,08,51,11.10
2013,03,31,08,52,11.20
2013,03,31,08,53,11.30
2013,03,31,08,54,11.40
2013,03,31,08,55,11.50
2013,03,31,08,56,11.60
2013,03,31,08,57,11.70
2013,03,31,08,58,11.80
2013,03,31,08,59,11.90
2013,03,31,09,00,12.00
2013,03,31,09,01,12.10
2013,03,31,09,02,12.00
2013,03,31,09,03,12.10
2013,03,31,09,04,12.10
2013,03,31,09,05,12.20
2013,03,31,09,06,12.20
2013,03,31,09,07,12.30
2013,03,31,09,08,12.30
2013,03,31,09,09,12.50
2013,03,31,09,10,12.50
2013,03,31,09,11,12.60
2013,03,31,09,12,12.70
2013,03,31,09,13,12.60
2013,03,31,09,14,12.70
2013,03,31,09,15,12.60
2013,03,31,09,16,12.60
2013,03,31,09,17,12.60
2013,03,31,09,18,12.50
2013,03,31,09,19,12.50
2013,03,31,09,20,12.60
2013,03,31,09,21,12.70
2013,03,31,09,22,12.70
2013,03,31,09,23,12.80
2013,03,31,09,24,13.00
2013,03,31,09,25,13.00
2013,03,31,09,26,13.10
2013,03,31,09,27,13.10
2013,03,31,09,28,13.20
2013,03,31,09,29,13.30
2013,03,31,09,30,13.30
2013,03,31,09,31,13.30
2013,03,31,09,32,13.30
2013,03,31,09,33,13.40
2013,03,31,09,34,13.40
2013,03,31,09,35,13.40
2013,03,31,09,36,13.30
2013,03,31,09,37,13.30
2013,03,31,09,38,13.20
2013,03,31,09,39,13.20
2013,03,31,09,40,13.20
2013,03,31,09,41,13.20
2013,03,31,09,42,13.30
2013,03,31,09,43,13.30
2013,03,31,09,44,13.30
2013,03,31,09,45,13.30
2013,03,31,09,46,13.40
2013,03,31,09,47,13.50
2013,03,31,09,48,13.60
2013,03,31,09,49,13.60
2013,03,31,09,50,13.60
2013,03,31,09,51,13.60
2013,03,31,09,52,13.60
2013,03,31,09,53,13.60
2013,03,31,09,54,13.60
2013,03,31,09,55,13.50
2013,03,31,09,56,13.50
2013,03,31,09,57,13.60
2013,03,31,09,58,13.70
2013,03,31,09,59,13.90
2013,03,31,10,00,14.00
2013,03,31,10,01,14.10
2013,03,31,10,02,14.20
2013,03,31,10,03,14.20
2013,03,31,10,04,14.10
2013,03,31,10,05,14.00
2013,03,31,10,06,14.00
2013,03,31,10,07,14.10
2013,03,31,10,08,14.10
2013,03,31,10,09,14.20
2013,03,31,10,10,14.20
2013,03,31,10,11,14.20
2013,03,31,10,12,14.20
2013,03,31,10,13,14.30
2013,03,31,10,14,14.40
2013,03,31,10,15,14.50
2013,03,31,10,16,14.60
2013,03,31,10,17,14.50
2013,03,31,10,18,14.50
2013,03,31,10,19,14.30
2013,03,31,10,20,14.30
2013,03,31,10,21,14.30
2013,03,31,10,22,14.20
2013,03,31,10,23,14.30
2013,03,31,10,24,14.30
2013,03,31,10,25,14.20
2013,03,31,10,26,14.20
2013,03,31,10,27,14.20
2013,03,31,10,28,14.30
2013,03,31,10,29,14.40
2013,03,31,10,30,14.40
2013,03,31,10,31,14.40
2013,03,31,10,32,14.50
2013,03,31,10,33,14.50
2013,03,31,10,34,14.50
2013,03,31,10,35,14.50
2013,03,31,10,36,14.50
2013,03,31,10,37,14.50
2013,03,31,10,38,14.50
2013,03,31,10,39,14.60
2013,03,31,10,40,14.70
2013,03,31,10,41,14.80
2013,03,31,10,42,14.90
2013,03,31,10,43,15.00
2013,03,31,10,44,15.10
2013,03,31,10,45,15.10
2013,03,31,10,46,15.00
2013,03,31,10,47,14.90
2013,03,31,10,48,15.00
2013,03,31,10,49,15.00
2013,03,31,10,50,14.90
2013,03,31,10,51,14.90
2013,03,31,10,52,14.80
2013,03,31,10,53,14.90
2013,03,31,10,54,15.00
2013,03,31,10,55,15.10
2013,03,31,10,56,15.10
2013,03,31,10,57,15.20
2013,03,31,10,58,15.30
2013,03,31,10,59,15.40
2013,03,31,11,00,15.40
2013,03,31,11,01,15.40
2013,03,31,11,02,15.30
2013,03,31,11,03,15.30
2013,03,31,11,04,15.30
2013,03,31,11,05,15.30
2013,03,31,11,06,15.30
2013,03,31,11,07,15.30
2013,03,31,11,08,15.30
2013,03,31,11,09,15.30
2013,03,31,11,10,15.40
2013,03,31,11,11,15.50
2013,03,31,11,12,15.60
2013,03,31,11,13,15.50
2013,03,31,11,14,15.60
2013,03,31,11,15,15.60
2013,03,31,11,16,15.70
2013,03,31,11,17,15.70
2013,03,31,11,18,15.70
2013,03,31,11,19,15.80
2013,03,31,11,20,15.80
2013,03,31,11,21,15.80
2013,03,31,11,22,15.80
2013,03,31,11,23,15.80
2013,03,31,11,24,15.70
2013,03,31,11,25,15.70
2013,03,31,11,26,15.80
2013,03,31,11,27,15.90
2013,03,31,11,28,16.00
2013,03,31,11,29,16.10
2013,03,31,11,30,16.10
2013,03,31,11,31,16.10
2013,03,31,11,32,16.10
2013,03,31,11,33,16.20
2013,03,31,11,34,16.30
2013,03,31,11,35,16.40
2013,03,31,11,36,16.50
2013,03,31,11,37,16.60
2013,03,31,11,38,16.70
2013,03,31,11,39,16.90
2013,03,31,11,40,16.90
2013,03,31,11,41,16.80
2013,03,31,11,42,16.70
2013,03,31,11,43,16.60
2013,03,31,11,44,16.50
2013,03,31,11,45,16.40
2013,03,31,11,46,16.40
2013,03,31,11,47,16.30
2013,03,31,11,48,16.30
2013,03,31,11,49,16.20
2013,03,31,11,50,16.20
2013,03,31,11,51,16.30
2013,03,31,11,52,16.50
2013,03,31,11,53,16.60
2013,03,31,11,54,16.60
2013,03,31,11,55,16.50
2013,03,31,11,56,16.30
2013,03,31,11,57,16.30
2013,03,31,11,58,16.30
2013,03,31,11,59,16.40
2013,03,31,12,00,16.50
2013,03,31,12,01,16.70
2013,03,31,12,02,16.60
2013,03,31,12,03,16.60
2013,03,31,12,04,16.60
2013,03,31,12,05,16.70
2013,03,31,12,06,16.70
2013,03,31,12,07,16.60
2013,03,31,12,08,16.60
2013,03,31,12,09,16.50
2013,03,31,12,10,16.40
2013,03,31,12,11,16.50
2013,03,31,12,12,16.70
2013,03,31,12,13,16.90
2013,03,31,12,14,17.00
2013,03,31,12,15,16.90
2013,03,31,12,16,17.00
2013,03,31,12,17,17.00
2013,03,31,12,18,17.20
2013,03,31,12,19,17.30
2013,03,31,12,20,17.30
2013,03,31,12,21,17.20
2013,03,31,12,22,17.00
2013,03,31,12,23,17.00
2013,03,31,12,24,17.00
2013,03,31,12,25,17.10
2013,03,31,12,26,17.30
2013,03,31,12,27,17.30
2013,03,31,12,28,17.40
2013,03,31,12,29,17.30
2013,03,31,12,30,17.20
2013,03,31,12,31,17.00
2013,03,31,12,32,17.00
2013,03,31,12,33,16.90
2013,03,31,12,34,16.90
2013,03,31,12,35,16.90
2013,03,31,12,36,16.90
2013,03,31,12,37,16.90
2013,03,31,12,38,16.80
2013,03,31,12,39,16.70
2013,03,31,12,40,16.80
2013,03,31,12,41,17.00
2013,03,31,12,42,17.10
2013,03,31,12,43,17.10
2013,03,31,12,44,17.30
2013,03,31,12,45,17.30
2013,03,31,12,46,17.20
2013,03,31,12,47,17.20
2013,03,31,12,48,17.10
2013,03,31,12,49,17.00
2013,03,31,12,50,17.10
2013,03,31,12,51,17.20
2013,03,31,12,52,17.30
2013,03,31,12,53,17.50
2013,03,31,12,54,17.60
2013,03,31,12,55,17.60
2013,03,31,12,56,17.50
2013,03,31,12,57,17.50
2013,03,31,12,58,17.50
2013,03,31,12,59,17.50
2013,03,31,13,00,17.40
2013,03,31,13,01,17.10
2013,03,31,13,02,17.00
2013,03,31,13,03,17.00
2013,03,31,13,04,17.10
2013,03,31,13,05,17.20
2013,03,31,13,06,17.30
2013,03,31,13,07,17.20
2013,03,31,13,08,17.40
2013,03,31,13,09,17.60
2013,03,31,13,10,17.60
2013,03,31,13,11,17.70
2013,03,31,13,12,17.90
2013,03,31,13,13,17.90
2013,03,31,13,14,17.80
2013,03,31,13,15,17.80
2013,03,31,13,16,17.90
2013,03,31,13,17,17.90
2013,03,31,13,18,17.80
2013,03,31,13,19,17.80
2013,03,31,13,20,17.80
2013,03,31,13,21,17.90
2013,03,31,13,22,18.00
2013,03,31,13,23,18.10
2013,03,31,13,24,18.10
2013,03,31,13,25,18.10
2013,03,31,13,26,18.20
2013,03,31,13,27,18.20
2013,03,31,13,28,18.20
2013,03,31,13,29,18.00
2013,03,31,13,30,17.90
2013,03,31,13,31,17.90
2013,03,31,13,32,17.80
2013,03,31,13,33,17.80
2013,03,31,13,34,17.90
2013,03,31,13,35,17.80
2013,03,31,13,36,17.90
2013,03,31,13,37,18.00
2013,03,31,13,38,18.00
2013,03,31,13,39,17.80
2013,03,31,13,40,17.70
2013,03,31,13,41,17.60
2013,03,31,13,42,17.60
2013,03,31,13,43,17.80
2013,03,31,13,44,18.00
2013,03,31,13,45,18.10
2013,03,31,13,46,18.20
2013,03,31,13,47,18.20
2013,03,31,13,48,18.20
2013,03,31,13,49,18.20
2013,03,31,13,50,18.20
2013,03,31,13,51,18.20
2013,03,31,13,52,18.10
2013,03,31,13,53,18.00
2013,03,31,13,54,17.90
2013,03,31,13,55,17.90
2013,03,31,13,56,18.00
2013,03,31,13,57,18.20
2013,03,31,13,58,18.20
2013,03,31,13,59,18.30
2013,03,31,14,00,18.50
2013,03,31,14,01,18.50
2013,03,31,14,02,18.50
2013,03,31,14,03,18.60
2013,03,31,14,04,18.60
2013,03,31,14,05,18.60
2013,03,31,14,06,18.60
2013,03,31,14,07,18.60
2013,03,31,14,08,18.60
2013,03,31,14,09,18.50
2013,03,31,14,10,18.60
2013,03,31,14,11,18.60
2013,03,31,14,12,18.70
2013,03,31,14,13,18.80
2013,03,31,14,14,18.90
2013,03,31,14,15,18.90
2013,03,31,14,16,18.90
2013,03,31,14,17,18.80
2013,03,31,14,18,18.60
2013,03,31,14,19,18.60
2013,03,31,14,20,18.60
2013,03,31,14,21,18.80
2013,03,31,14,22,19.00
2013,03,31,14,23,19.10
2013,03,31,14,24,19.20
2013,03,31,14,25,19.20
2013,03,31,14,26,19.20
2013,03,31,14,27,19.20
2013,03,31,14,28,19.30
2013,03,31,14,29,19.20
2013,03,31,14,30,19.00
2013,03,31,14,31,18.80
2013,03,31,14,32,18.60
2013,03,31,14,33,18.60
2013,03,31,14,34,18.60
2013,03,31,14,35,18.60
2013,03,31,14,36,18.70
2013,03,31,14,37,18.80
2013,03,31,14,38,18.90
2013,03,31,14,39,18.90
2013,03,31,14,40,18.80
2013,03,31,14,41,18.90
2013,03,31,14,42,19.00
2013,03,31,14,43,19.10
2013,03,31,14,44,19.10
2013,03,31,14,45,19.20
2013,03,31,14,46,19.20
2013,03,31,14,47,19.20
2013,03,31,14,48,19.10
2013,03,31,14,49,19.00
2013,03,31,14,50,18.90
2013,03,31,14,51,18.90
2013,03,31,14,52,19.00
2013,03,31,14,53,19.10
2013,03,31,14,54,19.20
2013,03,31,14,55,19.20
2013,03,31,14,56,19.10
2013,03,31,14,57,19.10
2013,03,31,14,58,19.10
2013,03,31,14,59,18.90
2013,03,31,15,00,18.90
2013,03,31,15,01,18.80
2013,03,31,15,02,18.90
2013,03,31,15,03,18.90
2013,03,31,15,04,19.00
2013,03,31,15,05,19.10
2013,03,31,15,06,19.10
2013,03,31,15,07,19.10
2013,03,31,15,08,19.10
2013,03,31,15,09,19.10
2013,03,31,15,10,19.10
2013,03,31,15,11,19.10
2013,03,31,15,12,19.10
2013,03,31,15,13,19.10
2013,03,31,15,14,19.20
2013,03,31,15,15,19.20
2013,03,31,15,16,19.10
2013,03,31,15,17,19.10
2013,03,31,15,18,19.10
2013,03,31,15,19,19.20
2013,03,31,15,20,19.40
2013,03,31,15,21,19.50
2013,03,31,15,22,19.60
2013,03,31,15,23,19.70
2013,03,31,15,24,19.60
2013,03,31,15,25,19.60
2013,03,31,15,26,19.50
2013,03,31,15,27,19.40
2013,03,31,15,28,19.30
2013,03,31,15,29,19.30
2013,03,31,15,30,19.40
2013,03,31,15,31,19.50
2013,03,31,15,32,19.50
2013,03,31,15,33,19.50
2013,03,31,15,34,19.60
2013,03,31,15,35,19.50
2013,03,31,15,36,19.50
2013,03,31,15,37,19.60
2013,03,31,15,38,19.60
2013,03,31,15,39,19.60
2013,03,31,15,40,19.60
2013,03,31,15,41,19.50
2013,03,31,15,42,19.40
2013,03,31,15,43,19.30
2013,03,31,15,44,19.30
2013,03,31,15,45,19.40
2013,03,31,15,46,19.40
2013,03,31,15,47,19.50
2013,03,31,15,48,19.60
2013,03,31,15,49,19.60
2013,03,31,15,50,19.60
2013,03,31,15,51,19.70
2013,03,31,15,52,19.80
2013,03,31,15,53,19.70
2013,03,31,15,54,19.60
2013,03,31,15,55,19.50
2013,03,31,15,56,19.30
2013,03,31,15,57,19.30
2013,03,31,15,58,19.40
2013,03,31,15,59,19.40
2013,03,31,16,00,19.30
2013,03,31,16,01,19.30
2013,03,31,16,02,19.20
2013,03,31,16,03,19.10
2013,03,31,16,04,19.10
2013,03,31,16,05,19.00
2013,03,31,16,06,19.00
2013,03,31,16,07,18.90
2013,03,31,16,08,18.90
2013,03,31,16,09,18.90
2013,03,31,16,10,18.90
2013,03,31,16,11,18.90
2013,03,31,16,12,18.80
2013,03,31,16,13,18.70
2013,03,31,16,14,18.70
2013,03,31,16,15,18.70
2013,03,31,16,16,18.70
2013,03,31,16,17,18.60
2013,03,31,16,18,18.60
2013,03,31,16,19,18.70
2013,03,31,16,20,18.70
2013,03,31,16,21,18.70
2013,03,31,16,22,18.80
2013,03,31,16,23,18.90
2013,03,31,16,24,19.10
2013,03,31,16,25,19.10
2013,03,31,16,26,19.10
2013,03,31,16,27,19.30
2013,03,31,16,28,19.40
2013,03,31,16,29,19.30
2013,03,31,16,30,19.30
2013,03,31,16,31,19.30
2013,03,31,16,32,19.20
2013,03,31,16,33,19.30
2013,03,31,16,34,19.30
2013,03,31,16,35,19.30
2013,03,31,16,36,19.20
2013,03,31,16,37,19.10
2013,03,31,16,38,19.00
2013,03,31,16,39,18.90
2013,03,31,16,40,18.90
2013,03,31,16,41,18.90
2013,03,31,16,42,18.90
2013,03,31,16,43,19.00
2013,03,31,16,44,19.10
2013,03,31,16,45,19.10
2013,03,31,16,46,19.20
2013,03,31,16,47,19.10
2013,03,31,16,48,19.10
2013,03,31,16,49,19.10
2013,03,31,16,50,19.10
2013,03,31,16,51,19.00
2013,03,31,16,52,18.90
2013,03,31,16,53,18.90
2013,03,31,16,54,18.90
2013,03,31,16,55,19.00
2013,03,31,16,56,19.10
2013,03,31,16,57,19.30
2013,03,31,16,58,19.40
2013,03,31,16,59,19.30
2013,03,31,17,00,19.20
2013,03,31,17,01,19.20
2013,03,31,17,02,19.10
2013,03,31,17,03,19.10
2013,03,31,17,04,19.10
2013,03,31,17,05,19.10
2013,03,31,17,06,19.10
2013,03,31,17,07,19.10
2013,03,31,17,08,19.20
2013,03,31,17,09,19.10
2013,03,31,17,10,18.90
2013,03,31,17,11,18.90
2013,03,31,17,12,18.80
2013,03,31,17,13,18.80
2013,03,31,17,14,18.80
2013,03,31,17,15,18.70
2013,03,31,17,16,18.70
2013,03,31,17,17,18.60
2013,03,31,17,18,18.50
2013,03,31,17,19,18.50
2013,03,31,17,20,18.50
2013,03,31,17,21,18.60
2013,03,31,17,22,18.60
2013,03,31,17,23,18.70
2013,03,31,17,24,18.70
2013,03,31,17,25,18.80
2013,03,31,17,26,18.70
2013,03,31,17,27,18.70
2013,03,31,17,28,18.70
2013,03,31,17,29,18.70
2013,03,31,17,30,18.70
2013,03,31,17,31,18.70
2013,03,31,17,32,18.70
2013,03,31,17,33,18.60
2013,03,31,17,34,18.50
2013,03,31,17,35,18.50
2013,03,31,17,36,18.50
2013,03,31,17,37,18.50
2013,03,31,17,38,18.50
2013,03,31,17,39,18.50
2013,03,31,17,40,18.50